User: anonymous
Location: Unspecified
(0.0000°N, 0.0000°E)
Time: 16:26:25
(UTC+02:00)
Language:

Cosmos 1295 Rocket - Orbit

View from above orbital plane
View from above orbital plane
View from above satellite
View from above satellite

Ground track
Ground track

The orbit data is extracted from the following two-line orbital elements,

1 12682U 81077B   14113.12235328  .00000079  00000-0  63021-4 0  6818
2 12682 082.9161 157.0091 0033014 334.3079 053.7661 13.78442968644285
Epoch (UTC): 23 April 2014 02:56:11
Eccentricity: 0.0033014
inclination: 82.9161°
perigee height: 945 km
apogee height: 993 km
right ascension of ascending node: 157.0091°
argument of perigee: 334.3079°
revolutions per day: 13.78442968
mean anomaly at epoch: 53.7661°
orbit number at epoch: 64428

The dashed part of the orbit path shows where the satellite is in the earth's shadow,  

DLR